• In Netherlands
  • List of Countries
  • For 7 days
  • Water Temperature
  • Satellite Maps
  • Weather Map
  • Weather Widgets
  • user-avatar
    Login

    Hourly Weather Armawir

    Today, 20 February, Monday

    Time Temperature Precipitation Wind Pressure Humidity
    00:00 -10°C° 0 mm 1 mps 690 mmHg 89%
    01:00 -10°C° 0 mm 1 mps 690 mmHg 88%
    02:00 -10°C° 0 mm 1 mps 690 mmHg 88%
    03:00 -11°C° 0 mm 1 mps 689 mmHg 87%
    04:00 -11°C° 0 mm 1 mps 689 mmHg 87%
    05:00 -11°C° 0 mm 1 mps 689 mmHg 88%
    06:00 -11°C° 0 mm 1 mps 689 mmHg 88%
    07:00 -7°C° 0 mm 1 mps 690 mmHg 85%
    08:00 -2°C° 0 mm 1 mps 691 mmHg 81%
    09:00 +2°C° 0 mm 0 mps 692 mmHg 75%
    10:00 +4°C° 0 mm 1 mps 692 mmHg 76%
    11:00 +5°C° 0 mm 1 mps 691 mmHg 76%
    12:00 +6°C° 0 mm 1 mps 691 mmHg 77%
    13:00 +6°C° 0 mm 1 mps 690 mmHg 79%
    14:00 +6°C° 0 mm 1 mps 690 mmHg 80%
    15:00 +6°C° 0 mm 1 mps 689 mmHg 81%
    16:00 +2°C° 0 mm 1 mps 688 mmHg 85%
    17:00 -2°C° 0 mm 1 mps 687 mmHg 88%
    18:00 -7°C° 0 mm 1 mps 686 mmHg 91%
    19:00 -7°C° 0 mm 1 mps 686 mmHg 90%
    20:00 -7°C° 0 mm 1 mps 686 mmHg 88%
    21:00 -8°C° 0 mm 1 mps 686 mmHg 86%
    22:00 -8°C° 0 mm 1 mps 686 mmHg 85%
    23:00 -8°C° 0 mm 1 mps 686 mmHg 85%

    Tomorrow, 21 February, Tuesday

    Time Temperature Precipitation Wind Pressure Humidity
    00:00 -9°C° 0 mm 1 mps 686 mmHg 84%
    01:00 -9°C° 0 mm 1 mps 686 mmHg 83%
    02:00 -9°C° 0 mm 1 mps 686 mmHg 81%
    03:00 -9°C° 0 mm 1 mps 685 mmHg 80%
    04:00 -9°C° 0 mm 1 mps 685 mmHg 79%
    05:00 -9°C° 0 mm 1 mps 685 mmHg 78%
    06:00 -9°C° 0 mm 1 mps 685 mmHg 76%
    07:00 -6°C° 0 mm 1 mps 686 mmHg 74%
    08:00 -1°C° 0 mm 1 mps 687 mmHg 72%
    09:00 +2°C° 0 mm 1 mps 687 mmHg 70%
    10:00 +3°C° 0 mm 1 mps 687 mmHg 69%
    11:00 +5°C° 0 mm 1 mps 687 mmHg 68%
    12:00 +6°C° 0 mm 1 mps 686 mmHg 66%
    13:00 +6°C° 0 mm 1 mps 686 mmHg 68%
    14:00 +6°C° 0 mm 1 mps 686 mmHg 70%
    15:00 +6°C° 0 mm 1 mps 685 mmHg 72%
    16:00 +2°C° 0 mm 1 mps 684 mmHg 77%
    17:00 -2°C° 0 mm 1 mps 683 mmHg 81%
    18:00 -7°C° 0 mm 1 mps 682 mmHg 86%
    19:00 -7°C° 0 mm 1 mps 683 mmHg 84%
    20:00 -7°C° 0 mm 1 mps 683 mmHg 82%
    21:00 -7°C° 0 mm 1 mps 684 mmHg 80%
    22:00 -7°C° 0 mm 1 mps 684 mmHg 78%
    23:00 -7°C° 0 mm 1 mps 684 mmHg 75%

    Day after tomorrow, 22 February, Wednesday

    Time Temperature Precipitation Wind Pressure Humidity
    00:00 -7°C° 0 mm 1 mps 684 mmHg 73%
    01:00 -7°C° 0 mm 1 mps 684 mmHg 73%
    02:00 -7°C° 0 mm 1 mps 685 mmHg 72%
    03:00 -6°C° 0 mm 1 mps 685 mmHg 72%
    04:00 -7°C° 0 mm 1 mps 685 mmHg 72%
    05:00 -7°C° 0 mm 1 mps 685 mmHg 72%
    06:00 -7°C° 0 mm 1 mps 685 mmHg 72%
    07:00 -4°C° 0 mm 1 mps 685 mmHg 71%
    08:00 -1°C° 0 mm 1 mps 686 mmHg 70%
    09:00 +1°C° 0 mm 1 mps 687 mmHg 69%
    10:00 +3°C° 0 mm 1 mps 686 mmHg 69%
    11:00 +3°C° 0 mm 2 mps 686 mmHg 69%
    12:00 +4°C° 0 mm 2 mps 686 mmHg 69%
    13:00 +4°C° 0 mm 2 mps 685 mmHg 71%
    14:00 +4°C° 0 mm 2 mps 685 mmHg 74%
    15:00 +5°C° 0 mm 2 mps 685 mmHg 76%
    16:00 +2°C° 0 mm 2 mps 684 mmHg 79%
    17:00 -1°C° 0 mm 2 mps 684 mmHg 82%
    18:00 -3°C° 0 mm 2 mps 684 mmHg 85%
    19:00 -3°C° 0.1 mm 2 mps 685 mmHg 84%
    20:00 -3°C° 0.1 mm 2 mps 685 mmHg 84%
    21:00 -4°C° 0.1 mm 2 mps 685 mmHg 83%
    22:00 -3°C° 0.1 mm 2 mps 685 mmHg 83%
    23:00 -3°C° 0.1 mm 2 mps 686 mmHg 83%

    23 February, Thursday

    Time Temperature Precipitation Wind Pressure Humidity
    00:00 -2°C° 0.1 mm 2 mps 686 mmHg 83%
    01:00 -2°C° 0.2 mm 2 mps 686 mmHg 83%
    02:00 0°C° 0.2 mm 1 mps 686 mmHg 84%
    03:00 0°C° 0.2 mm 1 mps 686 mmHg 84%
    04:00 0°C° 0.2 mm 1 mps 686 mmHg 85%
    05:00 0°C° 0.2 mm 1 mps 686 mmHg 85%
    06:00 0°C° 0.2 mm 1 mps 686 mmHg 86%
    07:00 +1°C° 0.1 mm 1 mps 687 mmHg 84%
    08:00 +2°C° 0.1 mm 1 mps 688 mmHg 82%
    09:00 +3°C° 0.1 mm 1 mps 688 mmHg 79%
    10:00 +4°C° 0 mm 1 mps 688 mmHg 79%
    11:00 +5°C° 0 mm 1 mps 688 mmHg 78%
    12:00 +6°C° 0 mm 1 mps 688 mmHg 78%
    13:00 +6°C° 0 mm 1 mps 688 mmHg 79%
    14:00 +6°C° 0 mm 1 mps 688 mmHg 80%
    15:00 +5°C° 0 mm 2 mps 687 mmHg 82%
    16:00 +3°C° 0 mm 2 mps 687 mmHg 85%
    17:00 +1°C° 0 mm 1 mps 687 mmHg 88%
    18:00 -1°C° 0 mm 1 mps 687 mmHg 91%
    19:00 -2°C° 0 mm 1 mps 688 mmHg 89%
    20:00 -2°C° 0 mm 1 mps 688 mmHg 87%
    21:00 -3°C° 0 mm 1 mps 689 mmHg 86%
    22:00 -3°C° 0 mm 1 mps 689 mmHg 84%
    23:00 -3°C° 0 mm 1 mps 689 mmHg 82%

    24 February, Friday

    Time Temperature Precipitation Wind Pressure Humidity
    00:00 -5°C° 0 mm 2 mps 689 mmHg 81%
    01:00 -5°C° 0 mm 2 mps 689 mmHg 80%
    02:00 -5°C° 0 mm 2 mps 689 mmHg 80%
    03:00 -3°C° 0 mm 1 mps 689 mmHg 79%
    04:00 -3°C° 0 mm 1 mps 689 mmHg 78%
    05:00 -3°C° 0 mm 1 mps 689 mmHg 78%
    06:00 -3°C° 0 mm 1 mps 689 mmHg 77%
    07:00 -1°C° 0 mm 1 mps 689 mmHg 75%
    08:00 +1°C° 0 mm 1 mps 690 mmHg 73%
    09:00 +4°C° 0 mm 1 mps 691 mmHg 71%
    10:00 +5°C° 0 mm 1 mps 690 mmHg 72%
    11:00 +6°C° 0 mm 1 mps 690 mmHg 74%
    12:00 +7°C° 0 mm 1 mps 690 mmHg 75%
    13:00 +7°C° 0 mm 1 mps 689 mmHg 76%
    14:00 +8°C° 0 mm 1 mps 689 mmHg 78%
    15:00 +8°C° 0 mm 1 mps 689 mmHg 80%
    16:00 +5°C° 0 mm 1 mps 688 mmHg 83%
    17:00 +2°C° 0 mm 1 mps 688 mmHg 86%
    18:00 -2°C° 0 mm 1 mps 687 mmHg 89%
    19:00 -2°C° 0 mm 1 mps 688 mmHg 88%
    20:00 -3°C° 0 mm 1 mps 688 mmHg 88%
    21:00 -3°C° 0 mm 1 mps 688 mmHg 88%
    22:00 -3°C° 0 mm 1 mps 688 mmHg 87%
    23:00 -3°C° 0 mm 1 mps 688 mmHg 86%

    25 February, Saturday

    Time Temperature Precipitation Wind Pressure Humidity
    00:00 -4°C° 0 mm 1 mps 688 mmHg 84%
    01:00 -4°C° 0 mm 1 mps 688 mmHg 83%
    02:00 -4°C° 0 mm 1 mps 688 mmHg 82%
    03:00 -4°C° 0 mm 1 mps 688 mmHg 81%
    04:00 -4°C° 0 mm 1 mps 688 mmHg 80%
    05:00 -4°C° 0 mm 1 mps 688 mmHg 79%
    06:00 -3°C° 0 mm 1 mps 688 mmHg 78%
    07:00 0°C° 0 mm 1 mps 689 mmHg 76%
    08:00 +2°C° 0 mm 1 mps 689 mmHg 74%
    09:00 +5°C° 0 mm 1 mps 690 mmHg 72%
    10:00 +6°C° 0 mm 1 mps 689 mmHg 74%
    11:00 +7°C° 0 mm 1 mps 688 mmHg 76%
    12:00 +7°C° 0 mm 2 mps 688 mmHg 77%
    13:00 +7°C° 0 mm 2 mps 687 mmHg 78%
    14:00 +8°C° 0 mm 2 mps 687 mmHg 80%
    15:00 +8°C° 0 mm 2 mps 686 mmHg 81%
    16:00 +6°C° 0 mm 2 mps 686 mmHg 82%
    17:00 +4°C° 0 mm 2 mps 686 mmHg 84%
    18:00 +2°C° 0 mm 2 mps 686 mmHg 85%
    19:00 +1°C° 0 mm 2 mps 686 mmHg 85%
    20:00 -1°C° 0 mm 2 mps 686 mmHg 84%
    21:00 -2°C° 0 mm 2 mps 686 mmHg 84%
    22:00 -2°C° 0 mm 2 mps 686 mmHg 84%
    23:00 -2°C° 0 mm 2 mps 686 mmHg 84%
    Show more